FW1494 Weather Reports


time (UTC)temp
F
wind
direction
speed
knots
gust
knots
rain 1hr
in
rain 24hr
in
rain mn
in
humidity
%
barometer
mb
20260509033933 64 273 7.8 13.0 0.00 0.09 0.04 94 1004.9
20260509033710 64 275 10.4 14.8 0.00 0.09 0.04 93 1004.9
20260509032929 64 302 9.6 14.8 0.00 0.09 0.04 93 1004.9
20260509032425 65 277 8.7 14.8 0.00 0.09 0.04 93 1005.1
20260509031919 65 307 7.0 11.3 0.00 0.09 0.04 93 1005.1
20260509031416 65 254 7.0 12.2 0.00 0.09 0.04 93 1005.2
20260509030910 65 284 7.8 12.2 0.00 0.09 0.04 93 1005.2
20260509030646 65 311 7.8 11.3 0.00 0.09 0.04 93 1005.2
20260509025907 65 279 8.7 11.3 0.00 0.09 0.04 92 1005.3
20260509025403 65 297 8.7 13.9 0.00 0.09 0.04 92 1005.2
20260509024905 66 300 8.7 13.9 0.00 0.09 0.04 92 1005.2
20260509024359 66 309 7.8 12.2 0.00 0.09 0.04 92 1005.2
20260509024131 65 309 9.6 12.2 0.00 0.09 0.04 91 1005.1
20260509023357 65 283 8.7 12.2 0.00 0.09 0.04 91 1005.1
20260509022850 65 284 9.6 12.2 0.00 0.09 0.04 91 1005.2
20260509022351 66 286 7.8 14.8 0.00 0.09 0.04 90 1005.1
20260509021846 66 314 9.6 14.8 0.00 0.09 0.04 88 1005.1
20260509021341 67 292 10.4 13.9 0.00 0.09 0.04 87 1005.0
20260509020841 68 274 8.7 12.2 0.00 0.09 0.04 88 1005.0
20260509020337 68 282 6.1 8.7 0.00 0.09 0.04 89 1005.0
20260509015839 67 282 4.3 10.4 0.00 0.09 0.04 90 1004.9
20260509015338 67 282 5.2 13.0 0.00 0.09 0.04 89 1005.0
20260509014837 67 234 8.7 13.0 0.00 0.09 0.04 89 1005.0
20260509014614 67 307 8.7 13.0 0.00 0.09 0.04 89 1005.2
20260509013837 67 286 9.6 13.0 0.00 0.09 0.04 89 1005.1
20260509013337 67 288 8.7 13.9 0.00 0.09 0.04 89 1005.1
20260509012841 66 296 9.6 13.9 0.00 0.09 0.04 90 1005.2
20260509012338 66 286 7.8 12.2 0.00 0.09 0.04 91 1005.2
20260509012108 66 254 9.6 12.2 0.00 0.09 0.04 89 1005.3
20260509011350 67 251 9.6 11.3 0.00 0.09 0.04 88 1005.5
20260509011345 67 249 7.8 11.3 0.00 0.09 0.04 89 1005.4
20260509010332 67 285 7.0 11.3 0.00 0.09 0.04 89 1005.5
20260509005832 67 291 9.6 13.9 0.00 0.09 0.04 89 1005.5
20260509005559 67 284 10.4 14.8 0.00 0.09 0.04 89 1005.6
20260509004823 67 286 7.8 14.8 0.00 0.09 0.04 90 1005.7
20260509004322 67 286 10.4 14.8 0.00 0.09 0.04 89 1005.8
20260509004049 67 283 11.3 16.5 0.00 0.09 0.04 89 1005.9
20260509003552 67 280 11.3 17.4 0.00 0.09 0.04 89 1006.0
20260509002814 67 284 9.6 17.4 0.00 0.09 0.04 89 1006.1
20260509002542 67 290 12.2 16.5 0.00 0.09 0.04 90 1006.1
20260509002039 66 292 9.6 14.8 0.00 0.09 0.04 91 1006.3
20260509001306 66 248 7.8 14.8 0.00 0.09 0.04 91 1006.4
20260509000806 66 269 11.3 14.8 0.00 0.09 0.04 90 1006.5
20260509000307 67 282 10.4 16.5 0.00 0.09 0.04 91 1006.6
20260509000027 66 281 10.4 16.5 0.00 0.09 0.04 92 1006.8
20260508235306 66 290 8.7 11.3 0.00 0.09 0.04 92 1006.8
20260508234758 66 284 8.7 13.9 0.00 0.09 0.04 93 1006.9
20260508234259 65 285 10.4 17.4 0.00 0.09 0.04 92 1007.0
20260508233758 66 268 13.0 17.4 0.00 0.09 0.04 92 1007.1
20260508233531 66 288 9.6 15.6 0.00 0.09 0.04 94 1007.1
20260508233025 66 248 9.6 15.6 0.00 0.09 0.04 93 1007.2
20260508232245 66 306 8.7 13.9 0.00 0.09 0.04 94 1007.2
20260508231740 66 325 8.7 14.8 0.00 0.09 0.04 94 1007.2
20260508231241 66 294 9.6 14.8 0.00 0.09 0.04 94 1007.4
20260508231010 66 286 8.7 12.2 0.00 0.09 0.04 94 1007.4
20260508230512 66 305 6.1 10.4 0.00 0.09 0.04 95 1007.5
20260508225735 65 260 7.0 14.8 0.00 0.09 0.04 94 1007.5
20260508225507 65 284 9.6 14.8 0.00 0.09 0.04 94 1007.5
20260508224732 65 287 6.1 12.2 0.00 0.09 0.04 95 1007.6
20260508224222 65 317 9.6 12.2 0.00 0.09 0.04 94 1007.5
20260508223718 65 284 8.7 13.0 0.00 0.09 0.04 95 1007.5
20260508223220 65 319 9.6 13.0 0.00 0.09 0.04 95 1007.6
20260508222714 64 304 8.7 11.3 0.00 0.09 0.04 95 1007.7
20260508222214 64 288 7.0 13.0 0.00 0.09 0.04 95 1007.7
20260508221948 64 307 6.1 13.0 0.00 0.09 0.04 95 1007.8
20260508221212 64 331 7.8 12.2 0.00 0.09 0.04 95 1007.9
20260508220706 64 296 7.8 12.2 0.00 0.09 0.04 95 1007.9
20260508220438 63 294 7.8 10.4 0.00 0.09 0.04 95 1007.9
20260508215659 63 286 7.0 10.4 0.00 0.09 0.04 95 1007.9
20260508215429 64 288 5.2 8.7 0.00 0.09 0.04 95 1008.0
20260508214652 63 294 5.2 8.7 0.00 0.09 0.04 95 1007.9
20260508214153 63 284 6.1 7.8 0.01 0.09 0.04 95 1007.9
20260508213638 63 290 6.1 9.6 0.01 0.09 0.04 95 1008.0
20260508213135 63 285 4.3 11.3 0.01 0.09 0.04 96 1007.9
20260508212629 63 284 6.1 11.3 0.01 0.09 0.04 96 1008.0
20260508212359 62 283 7.0 9.6 0.01 0.09 0.04 96 1007.9
20260508211626 62 284 7.0 8.7 0.01 0.09 0.04 97 1007.9
20260508211126 62 296 4.3 8.7 0.01 0.09 0.04 97 1008.0
20260508210630 62 307 5.2 9.6 0.01 0.09 0.04 98 1007.9
20260508210125 62 332 7.0 9.6 0.01 0.09 0.04 98 1008.0
20260508205621 62 288 6.1 9.6 0.01 0.09 0.04 98 1007.9
20260508205117 62 306 5.2 8.7 0.01 0.09 0.04 98 1007.9
20260508204615 61 297 6.1 8.7 0.00 0.08 0.04 98 1008.0
20260508204349 61 305 4.3 7.8 0.00 0.08 0.03 99 1008.0
20260508203846 61 301 3.5 7.8 0.00 0.08 0.03 99 1007.9
20260508203107 61 300 3.5 7.8 0.00 0.08 0.03 99 1008.0
20260508202608 60 315 4.3 7.8 0.00 0.08 0.03 99 1008.0
20260508202107 60 311 4.3 7.8 0.00 0.08 0.03 99 1007.9
20260508201602 60 335 4.3 7.0 0.00 0.08 0.03 99 1007.9
20260508201102 60 311 3.5 6.1 0.00 0.08 0.03 99 1007.8
20260508200604 59 296 2.6 5.2 0.00 0.08 0.03 99 1007.8
20260508200053 59 323 2.6 4.3 0.00 0.08 0.03 99 1007.8
20260508195549 59 306 2.6 4.3 0.00 0.08 0.03 99 1007.8
20260508195045 59 306 1.7 4.3 0.01 0.08 0.03 99 1007.7
20260508194547 59 294 1.7 2.6 0.01 0.08 0.03 99 1007.6
20260508194045 58 294 1.7 2.6 0.01 0.08 0.03 99 1007.6
20260508193540 58 294 1.7 1.7 0.01 0.08 0.03 99 1007.4
20260508193035 59 294 1.7 2.6 0.01 0.08 0.03 99 1007.4
20260508192534 59 294 1.7 2.6 0.01 0.08 0.03 99 1007.4
20260508192030 59 294 1.7 3.5 0.01 0.08 0.03 99 1007.5
20260508191529 59 294 1.7 7.8 0.01 0.08 0.03 99 1007.4
20260508191256 59 294 4.3 7.8 0.01 0.08 0.03 99 1007.4
20260508190522 60 321 4.3 12.2 0.01 0.08 0.03 99 1007.4
20260508190018 60 297 7.0 12.2 0.01 0.08 0.03 99 1007.3
20260508185518 60 321 4.3 8.7 0.01 0.08 0.03 99 1007.3
20260508185014 60 292 4.3 7.8 0.00 0.07 0.02 100 1007.3
20260508184515 60 304 3.5 4.3 0.00 0.07 0.02 99 1007.3
20260508184005 60 288 2.6 6.1 0.00 0.07 0.02 99 1007.2
20260508183505 60 288 2.6 7.8 0.00 0.07 0.02 99 1007.2
20260508183005 60 288 3.5 7.8 0.00 0.07 0.02 100 1007.2
20260508182501 59 288 3.5 6.1 0.00 0.07 0.02 100 1007.3
20260508182001 59 296 2.6 4.3 0.00 0.07 0.02 99 1007.2
20260508181502 59 296 3.5 4.3 0.00 0.07 0.02 99 1007.2
20260508180956 59 292 2.6 4.3 0.00 0.07 0.02 99 1007.2
20260508180458 59 292 2.6 4.3 0.00 0.07 0.02 99 1007.2
20260508175947 59 300 3.5 4.3 0.00 0.07 0.02 99 1007.1
20260508175437 59 288 1.7 4.3 0.00 0.07 0.02 99 1007.1
20260508175206 59 288 1.7 4.3 0.00 0.07 0.02 99 1007.1
20260508174447 60 288 2.6 7.8 0.00 0.07 0.02 99 1007.1
20260508174442 60 288 1.7 4.3 0.00 0.07 0.02 99 1007.1
20260508173425 60 310 3.5 7.8 0.00 0.07 0.02 99 1007.1
20260508172922 60 296 2.6 7.0 0.00 0.07 0.02 99 1007.0
20260508172417 60 293 3.5 7.0 0.00 0.07 0.02 99 1007.0
20260508172145 60 296 2.6 7.0 0.00 0.07 0.02 99 1007.1
20260508171406 60 288 4.3 7.0 0.00 0.07 0.02 100 1007.1
20260508171139 60 288 2.6 4.3 0.00 0.07 0.02 99 1007.1
20260508170407 60 288 2.6 4.3 0.00 0.07 0.02 100 1007.0
20260508165906 59 294 2.6 3.5 0.00 0.07 0.02 99 1007.0
20260508165402 60 294 1.7 3.5 0.00 0.07 0.02 99 1007.0
20260508164857 60 294 1.7 6.1 0.00 0.07 0.02 99 1007.0
20260508164354 60 301 2.6 7.8 0.00 0.07 0.02 99 1007.1
20260508163854 60 296 2.6 7.8 0.00 0.07 0.02 99 1007.0
20260508163349 60 287 4.3 8.7 0.00 0.07 0.02 99 1007.1
20260508162844 60 288 6.1 8.7 0.00 0.07 0.02 99 1007.1
20260508162340 60 285 4.3 7.0 0.00 0.07 0.02 99 1007.1
20260508161835 60 285 3.5 6.1 0.00 0.07 0.02 99 1007.3
20260508161331 60 285 3.5 7.0 0.00 0.07 0.02 99 1007.3
20260508160828 60 285 3.5 7.0 0.00 0.07 0.02 99 1007.3
20260508160323 60 314 2.6 6.1 0.00 0.07 0.02 100 1007.3
20260508155823 60 319 3.5 6.1 0.00 0.07 0.02 99 1007.3
20260508155322 59 313 2.6 5.2 0.00 0.07 0.02 99 1007.3
20260508154821 60 346 3.5 6.1 0.00 0.07 0.02 99 1007.3
20260508154317 59 319 3.5 7.0 0.00 0.07 0.02 99 1007.3
20260508153817 60 328 3.5 7.0 0.00 0.07 0.02 99 1007.3
20260508153313 60 316 3.5 7.8 0.00 0.07 0.02 99 1007.3
20260508153047 60 309 4.3 8.7 0.00 0.07 0.02 99 1007.4
20260508152546 60 302 5.2 9.6 0.00 0.07 0.02 99 1007.4
20260508151804 60 313 6.1 9.6 0.00 0.07 0.02 99 1007.5
20260508151303 59 280 7.0 9.6 0.00 0.07 0.02 99 1007.6
20260508150804 59 288 5.2 8.7 0.00 0.07 0.02 99 1007.6
20260508150538 59 296 5.2 8.7 0.00 0.07 0.02 99 1007.6
20260508145800 60 285 4.3 8.7 0.00 0.07 0.02 99 1007.7
20260508145256 60 305 6.1 10.4 0.00 0.07 0.02 99 1007.7
20260508145024 60 281 7.0 10.4 0.00 0.07 0.02 99 1007.7
20260508144246 60 288 3.5 6.1 0.00 0.07 0.02 99 1007.6
20260508143743 60 288 2.6 7.0 0.00 0.07 0.02 99 1007.5
20260508143226 60 288 3.5 7.0 0.00 0.07 0.02 99 1007.6
20260508142958 60 288 3.5 7.0 0.00 0.07 0.02 100 1007.7
20260508142220 60 295 4.3 8.7 0.00 0.07 0.02 100 1007.7
20260508141720 60 293 3.5 8.7 0.00 0.07 0.02 100 1007.6
20260508141216 60 298 4.3 7.0 0.00 0.07 0.02 100 1007.8
20260508140717 60 297 3.5 7.0 0.00 0.07 0.02 100 1007.9
20260508140212 59 294 4.3 7.0 0.00 0.07 0.02 100 1007.9
20260508135712 60 296 5.2 7.0 0.00 0.07 0.02 100 1007.9
20260508135213 59 288 3.5 6.1 0.00 0.07 0.02 100 1008.0
20260508134944 59 302 3.5 6.1 0.00 0.07 0.02 100 1008.0
20260508134208 59 305 3.5 5.2 0.00 0.07 0.02 100 1008.1
20260508133707 59 325 3.5 5.2 0.00 0.07 0.02 100 1008.2
20260508133159 59 308 3.5 6.1 0.00 0.07 0.02 100 1008.1
20260508132702 59 301 3.5 7.0 0.00 0.07 0.02 100 1008.1
20260508132154 59 298 4.3 7.0 0.01 0.07 0.02 100 1008.1
20260508131650 59 285 3.5 5.2 0.01 0.07 0.02 100 1008.2
20260508131421 59 285 2.6 5.2 0.02 0.07 0.02 100 1008.1
20260508130641 59 285 3.5 5.2 0.02 0.07 0.02 99 1008.1
20260508130142 59 285 2.6 6.1 0.02 0.07 0.02 99 1008.1
20260508125635 59 285 3.5 7.0 0.02 0.07 0.02 99 1008.1
20260508125135 59 285 5.2 7.0 0.02 0.07 0.02 99 1008.3
20260508124630 59 284 3.5 6.1 0.03 0.07 0.02 99 1008.3
20260508124126 59 284 4.3 6.1 0.03 0.07 0.02 99 1008.2
20260508123624 59 284 5.2 6.1 0.03 0.07 0.02 99 1008.3
20260508123120 59 284 4.3 7.8 0.03 0.07 0.02 99 1008.3
20260508122622 59 284 5.2 9.6 0.03 0.07 0.02 99 1008.5
20260508122120 59 288 7.8 12.2 0.02 0.06 0.02 99 1008.6
20260508121616 59 284 7.0 12.2 0.03 0.06 0.02 99 1008.7
20260508121118 59 266 7.0 12.2 0.03 0.06 0.01 99 1008.7
20260508120617 59 298 7.8 12.2 0.04 0.06 0.01 99 1008.8
20260508120111 60 253 7.8 12.2 0.04 0.05 0.00 98 1008.8
20260508115612 60 274 7.8 12.2 0.04 0.05 0.05 98 1008.8
20260508115112 60 282 7.0 12.2 0.04 0.05 0.05 98 1008.5
20260508114608 60 286 7.0 17.4 0.03 0.04 0.04 98 1009.0
20260508114108 60 270 12.2 17.4 0.03 0.04 0.04 98 1008.9
20260508113605 61 280 10.4 16.5 0.03 0.04 0.04 97 1008.7
20260508113338 61 276 13.0 18.2 0.03 0.04 0.04 97 1008.4
20260508112606 62 279 13.9 21.7 0.03 0.04 0.04 97 1008.5
20260508112113 65 293 8.7 13.9 0.02 0.03 0.03 97 1008.7
20260508112107 63 288 12.2 21.7 0.03 0.04 0.04 96 1008.5
20260508111101 65 325 3.5 9.6 0.02 0.02 0.02 98 1008.2
20260508110556 65 332 5.2 10.4 0.01 0.02 0.02 98 1008.3
20260508110057 65 10 7.0 10.4 0.00 0.01 0.01 97 1008.3
20260508105552 65 348 5.2 9.6 0.00 0.01 0.01 97 1008.4
20260508105048 65 15 7.8 9.6 0.00 0.01 0.01 97 1008.6
20260508104549 65 355 5.2 12.2 0.00 0.01 0.01 97 1008.7
20260508104046 65 355 8.7 12.2 0.00 0.01 0.01 97 1008.7
20260508103539 65 350 7.8 13.9 0.00 0.01 0.01 97 1008.8
20260508103308 65 0 10.4 13.9 0.00 0.01 0.01 97 1008.8
20260508102531 65 5 7.8 13.9 0.00 0.01 0.01 96 1008.7
20260508102034 65 5 9.6 13.9 0.00 0.01 0.01 96 1008.9
20260508101530 65 14 8.7 14.8 0.00 0.01 0.01 96 1008.8
20260508101027 65 12 7.8 14.8 0.00 0.01 0.01 96 1008.9
20260508100521 65 341 7.8 13.0 0.00 0.01 0.01 95 1008.9
20260508100021 65 0 8.7 13.0 0.00 0.01 0.01 95 1009.0
20260508095517 65 349 9.6 13.0 0.00 0.01 0.01 95 1008.9
20260508095018 65 24 9.6 13.9 0.00 0.01 0.01 95 1009.0
20260508094513 65 19 7.8 13.9 0.00 0.01 0.01 95 1009.1
20260508094009 65 9 6.1 10.4 0.00 0.01 0.01 95 1009.2
20260508093746 65 9 7.0 10.4 0.00 0.01 0.01 95 1009.3
20260508093005 65 0 7.0 9.6 0.00 0.01 0.01 95 1009.3
20260508092501 65 0 7.0 11.3 0.00 0.01 0.01 95 1009.4
20260508091957 65 341 7.8 11.3 0.00 0.01 0.01 95 1009.5
20260508091452 65 18 7.0 13.0 0.00 0.01 0.01 95 1009.6
20260508090948 65 355 9.6 14.8 0.00 0.01 0.01 95 1009.5
20260508090450 65 9 10.4 14.8 0.00 0.01 0.01 95 1009.4
20260508090223 65 32 9.6 13.9 0.00 0.01 0.01 95 1009.3
20260508085445 65 34 7.8 11.3 0.00 0.01 0.01 95 1009.8
20260508084944 65 5 7.0 12.2 0.00 0.01 0.01 95 1009.9
20260508084448 65 19 8.7 12.2 0.00 0.01 0.01 95 1009.8
20260508083945 65 5 7.0 12.2 0.00 0.01 0.01 95 1010.1
20260508083443 65 11 7.8 9.6 0.00 0.01 0.01 95 1009.9
20260508082938 65 12 6.1 10.4 0.00 0.01 0.01 95 1010.1
20260508082439 65 10 7.0 10.4 0.00 0.01 0.01 95 1010.1
20260508082209 65 352 7.0 13.0 0.00 0.01 0.01 95 1010.3
20260508081431 65 11 9.6 13.0 0.00 0.01 0.01 95 1010.2
20260508080932 65 9 7.0 13.0 0.00 0.01 0.01 95 1010.2
20260508080431 65 13 7.8 13.9 0.00 0.01 0.01 95 1010.3
20260508075929 65 5 10.4 13.9 0.00 0.01 0.01 96 1010.4
20260508075658 65 0 9.6 13.0 0.00 0.01 0.01 96 1010.4
20260508074918 64 17 7.8 12.2 0.00 0.01 0.01 96 1010.6
20260508074654 64 5 7.8 11.3 0.00 0.01 0.01 96 1010.6
20260508073917 64 15 7.8 11.3 0.00 0.01 0.01 96 1010.7
20260508073413 65 355 7.0 13.0 0.00 0.01 0.01 96 1010.9
20260508072913 65 0 7.8 13.0 0.00 0.01 0.01 96 1011.0
20260508072411 65 344 8.7 13.9 0.00 0.01 0.01 96 1011.1
20260508071905 65 350 8.7 13.9 0.00 0.01 0.01 95 1011.2
20260508071404 65 338 7.8 11.3 0.00 0.01 0.01 95 1010.9
20260508071137 65 331 7.0 13.0 0.00 0.01 0.01 95 1010.8
20260508070356 65 5 8.7 13.0 0.00 0.01 0.01 95 1010.8
20260508065856 65 0 7.8 15.6 0.00 0.01 0.01 95 1010.8
20260508065357 65 352 10.4 14.8 0.00 0.01 0.01 95 1010.7
20260508065353 65 0 11.3 15.6 0.00 0.01 0.01 95 1010.7
20260508064348 65 355 11.3 14.8 0.01 0.01 0.01 95 1010.7
20260508063843 65 355 11.3 14.8 0.01 0.01 0.01 95 1010.6
20260508063344 65 0 10.4 14.8 0.01 0.01 0.01 96 1010.4
20260508063115 65 355 9.6 14.8 0.01 0.01 0.01 96 1010.4
20260508062335 65 5 11.3 18.2 0.01 0.01 0.01 96 1010.5
20260508061835 65 14 11.3 18.2 0.01 0.01 0.01 96 1010.5
20260508061336 64 30 10.4 14.8 0.01 0.01 0.01 96 1010.5
20260508061113 65 27 9.6 13.9 0.01 0.01 0.01 96 1010.7
20260508060334 64 40 10.4 13.0 0.01 0.01 0.01 96 1010.8
20260508055830 64 30 8.7 12.2 0.01 0.01 0.01 96 1010.9
20260508055330 64 5 7.8 11.3 0.01 0.01 0.01 96 1010.8
20260508054826 64 16 9.6 13.9 0.01 0.01 0.01 96 1010.8
20260508054326 65 13 10.4 13.9 0.00 0.00 0.00 95 1010.9
20260508053822 65 44 8.7 14.8 0.00 0.00 0.00 95 1010.8
20260508053325 65 56 11.3 15.6 0.00 0.00 0.00 95 1010.8
20260508052823 65 16 12.2 17.4 0.00 0.00 0.00 95 1011.1
20260508052819 65 27 10.4 15.6 0.00 0.00 0.00 95 1011.0
20260508051812 65 24 11.3 17.4 0.00 0.00 0.00 94 1011.4
20260508051310 65 12 9.6 14.8 0.00 0.00 0.00 94 1011.4
20260508050811 65 14 9.6 14.8 0.00 0.00 0.00 94 1011.5
20260508050310 65 18 11.3 14.8 0.00 0.00 0.00 94 1011.5
20260508045811 65 30 8.7 13.9 0.00 0.00 0.00 94 1011.5
20260508045308 65 34 10.4 14.8 0.00 0.00 0.00 94 1011.7
20260508045042 65 27 10.4 14.8 0.00 0.00 0.00 94 1012.0
20260508044305 65 5 10.4 13.9 0.00 0.00 0.00 95 1011.9
20260508043804 65 16 10.4 15.6 0.00 0.00 0.00 95 1012.0
20260508043304 66 38 11.3 15.6 0.00 0.00 0.00 95 1012.0
20260508042806 66 5 9.6 17.4 0.00 0.00 0.00 95 1012.0
20260508042301 66 32 11.3 17.4 0.00 0.00 0.00 95 1012.1
20260508041801 66 13 13.0 17.4 0.00 0.00 0.00 95 1012.2
20260508041532 66 38 10.4 14.8 0.00 0.00 0.00 95 1012.2
20260508040757 66 32 9.6 13.9 0.00 0.00 0.00 95 1012.3
20260508040257 66 28 8.7 13.0 0.00 0.00 0.00 95 1012.4
20260508035756 66 23 9.6 13.0 0.00 0.00 0.00 95 1012.5
20260508035530 66 5 7.8 13.0 0.00 0.00 0.00 95 1012.7
20260508034757 66 11 7.8 12.2 0.00 0.00 0.00 95 1012.6
20260508034256 67 336 9.6 16.5 0.00 0.00 0.00 95 1012.5